TimePST,TemperatureF,Dew PointF,Humidity,Sea Level PressureIn,VisibilityMPH,Wind Direction,Wind SpeedMPH,Gust SpeedMPH,PrecipitationIn,Events,Conditions,WindDirDegrees,DateUTC
12:54 AM,33.1,30.0,89,30.19,10.0,Calm,Calm,-,N/A,,Clear,0,2013-02-27 08:54:00
1:54 AM,34.0,30.0,85,30.21,10.0,Calm,Calm,-,N/A,,Clear,0,2013-02-27 09:54:00
2:54 AM,32.0,30.0,92,30.22,10.0,Calm,Calm,-,N/A,,Clear,0,2013-02-27 10:54:00
3:54 AM,32.0,30.0,92,30.22,10.0,NE,3.5,-,N/A,,Clear,50,2013-02-27 11:54:00
4:54 AM,36.0,30.9,82,30.22,10.0,NNE,3.5,-,N/A,,Clear,20,2013-02-27 12:54:00
5:54 AM,35.1,28.9,78,30.23,10.0,NNE,4.6,-,N/A,,Clear,20,2013-02-27 13:54:00
6:54 AM,32.0,28.9,88,30.27,10.0,Calm,Calm,-,N/A,,Clear,0,2013-02-27 14:54:00
7:54 AM,39.0,30.9,73,30.29,10.0,North,3.5,-,N/A,,Clear,10,2013-02-27 15:54:00
8:54 AM,45.0,36.0,71,30.31,10.0,Calm,Calm,-,N/A,,Clear,0,2013-02-27 16:54:00
9:54 AM,51.1,37.9,61,30.31,10.0,Calm,Calm,-,N/A,,Clear,0,2013-02-27 17:54:00
10:54 AM,55.0,39.9,57,30.30,10.0,SW,5.8,-,N/A,,Clear,230,2013-02-27 18:54:00
11:54 AM,57.9,42.1,56,30.30,10.0,Variable,5.8,-,N/A,,Clear,0,2013-02-27 19:54:00
12:54 PM,62.1,41.0,46,30.27,10.0,SW,4.6,-,N/A,,Clear,220,2013-02-27 20:54:00
1:54 PM,64.0,34.0,33,30.25,10.0,SW,5.8,-,N/A,,Clear,230,2013-02-27 21:54:00
2:54 PM,66.0,27.0,23,30.25,10.0,SSW,5.8,-,N/A,,Clear,200,2013-02-27 22:54:00
3:54 PM,64.9,37.0,36,30.24,10.0,SSW,8.1,-,N/A,,Clear,210,2013-02-27 23:54:00
4:54 PM,62.1,39.0,43,30.24,10.0,SSW,8.1,-,N/A,,Clear,200,2013-02-28 00:54:00
6:54 PM,53.1,44.1,71,30.27,10.0,WSW,5.8,-,N/A,,Clear,250,2013-02-28 02:54:00
7:54 PM,52.0,44.1,74,30.30,10.0,Calm,Calm,-,N/A,,Clear,0,2013-02-28 03:54:00
8:54 PM,53.1,45.0,74,30.31,10.0,Calm,Calm,-,N/A,,Clear,0,2013-02-28 04:54:00
10:54 PM,48.9,44.1,83,30.33,10.0,SSE,3.5,-,N/A,,Overcast,150,2013-02-28 06:54:00
11:54 PM,48.0,44.1,86,30.34,10.0,Calm,Calm,-,N/A,,Overcast,0,2013-02-28 07:54:00